Change the Weather History Date:

Friday, July 11, 2014

  Actual Average Record
Temperature  
Mean Temperature 77 °F 82 °F  
Max Temperature 84 °F 91 °F 104 °F (1932)
Min Temperature 70 °F 72 °F 58 °F (1961)
Degree Days  
Heating Degree Days 0 0  
Month to date heating degree days 0 0  
Since 1 June heating degree days 0 0  
Since 1 July heating degree days 0 0  
Cooling Degree Days 12 16  
Month to date cooling degree days 182 176  
Year to date cooling degree days 1005 856  
Since 1 June cooling degree days 639 572  
Growing Degree Days 26 (Base 50)    
Moisture  
Dew Point 70 °F    
Average Humidity 79    
Maximum Humidity 93    
Minimum Humidity 65    
Precipitation  
Precipitation 0.00 in 0.18 in 3.12 in (1990)
Month to date precipitation 1.44 1.89  
Year to date precipitation 22.58 21.91  
Sea Level Pressure  
Sea Level Pressure 30.13 in    
Wind  
Wind Speed 3 mph (East)    
Max Wind Speed 9 mph    
Max Gust Speed 12 mph    
Visibility 9 miles    
Events      
T = Trace of Precipitation, MM = Missing Value Source: NWS Daily Summary

Daily Weather History Graph

Daily Weather History Graph

Search for Another Location

Airport or City:

Trip Planner

Search our weather history database for the weather conditions in past years. The results will help you decide how hot, cold, wet, or windy it might be!

Date:

Astronomy

Jul. 11, 2014 Rise Set
Actual Time 6:10 AM EDT 8:31 PM EDT
Civil Twilight 5:41 AM EDT 9:00 PM EDT
Nautical Twilight 5:05 AM EDT 9:36 PM EDT
Astronomical Twilight 4:26 AM EDT 10:15 PM EDT
Moon 7:42 PM EDT (7/11) 5:18 AM EDT (7/11)
Length of Visible Light 15h 19m
Length of Day
14h 20m
Waxing Gibbous, 99% of the Moon is Illuminated
Jul 11
Waxing Gibbous
Jul 12
Full
Jul 18
Last Quarter
Jul 26
New
Aug 3
First Quarter

Hourly Weather History & Observations

Time (EDT) Temp. Heat Index Dew Point Humidity Pressure Visibility Wind Dir Wind Speed Gust Speed Precip Events Conditions
12:53 AM 72.0 °F - 70.0 °F 93% 30.08 in 10.0 mi South 5.8 mph - N/A   Clear
1:53 AM 71.1 °F - 69.1 °F 93% 30.07 in 10.0 mi SSW 5.8 mph - N/A   Clear
2:53 AM 71.1 °F - 69.1 °F 93% 30.08 in 5.0 mi North 4.6 mph - N/A   Partly Cloudy
3:18 AM 71.1 °F - 69.1 °F 93% 30.10 in 10.0 mi North 3.5 mph - N/A   Mostly Cloudy
3:49 AM 71.6 °F - 69.8 °F 94% 30.09 in 7.0 mi NNE 4.6 mph - N/A   Overcast
3:53 AM 71.1 °F - 69.1 °F 93% 30.08 in 7.0 mi NNE 3.5 mph - N/A   Overcast
4:53 AM 71.1 °F - 70.0 °F 96% 30.08 in 8.0 mi SE 3.5 mph - N/A   Overcast
5:53 AM 72.0 °F - 70.0 °F 93% 30.10 in 7.0 mi Calm Calm - N/A   Overcast
6:05 AM 72.0 °F - 70.0 °F 93% 30.12 in 7.0 mi ENE 3.5 mph - N/A   Overcast
6:53 AM 72.0 °F - 70.0 °F 93% 30.11 in 7.0 mi Calm Calm - N/A   Overcast
7:35 AM 73.0 °F - 70.0 °F 90% 30.13 in 9.0 mi Calm Calm - N/A   Overcast
7:53 AM 73.0 °F - 71.1 °F 93% 30.13 in 8.0 mi Calm Calm - N/A   Overcast
8:53 AM 73.9 °F - 71.1 °F 91% 30.16 in 10.0 mi Calm Calm - N/A   Overcast
9:53 AM 75.0 °F - 71.1 °F 87% 30.17 in 10.0 mi Calm Calm - N/A   Overcast
10:53 AM 78.1 °F - 70.0 °F 76% 30.17 in 10.0 mi Variable 3.5 mph - N/A   Mostly Cloudy
11:53 AM 78.1 °F - 70.0 °F 76% 30.17 in 10.0 mi NE 3.5 mph - N/A   Overcast
12:53 PM 79.0 °F - 70.0 °F 74% 30.17 in 10.0 mi ESE 5.8 mph - N/A   Overcast
1:53 PM 80.1 °F 83.2 °F 70.0 °F 71% 30.17 in 10.0 mi ESE 4.6 mph - N/A   Overcast
2:13 PM 80.1 °F 83.2 °F 70.0 °F 71% 30.18 in 10.0 mi Calm Calm - N/A   Mostly Cloudy
2:53 PM 81.0 °F 84.9 °F 71.1 °F 72% 30.15 in 10.0 mi East 6.9 mph - N/A   Clear
3:53 PM 82.0 °F 85.9 °F 70.0 °F 67% 30.15 in 10.0 mi East 3.5 mph - N/A   Mostly Cloudy
4:53 PM 82.9 °F 87.0 °F 70.0 °F 65% 30.13 in 10.0 mi ESE 9.2 mph - N/A   Partly Cloudy
5:53 PM 82.9 °F 87.0 °F 70.0 °F 65% 30.13 in 10.0 mi East 8.1 mph - N/A   Partly Cloudy
6:53 PM 82.9 °F 86.5 °F 69.1 °F 63% 30.14 in 10.0 mi East 6.9 mph - N/A   Clear
7:53 PM 81.0 °F 84.4 °F 70.0 °F 69% 30.14 in 10.0 mi East 3.5 mph - N/A   Clear
8:53 PM 77.0 °F - 70.0 °F 79% 30.15 in 10.0 mi East 3.5 mph - N/A   Clear
9:53 PM 75.9 °F - 70.0 °F 82% 30.17 in 10.0 mi Calm Calm - N/A   Clear
10:53 PM 75.0 °F - 70.0 °F 84% 30.18 in 10.0 mi Calm Calm - N/A   Clear
11:53 PM 73.9 °F - 70.0 °F 87% 30.17 in 10.0 mi Calm Calm - N/A   Clear